Regional Weather Roundup
Issued by NWS

Home | Current Version | Previous Version | Graphics & Text | Print | Product List | Glossary Off
Versions: 1 2 3 4 5 6 7 8 9 10 11 12 13 14 15 16 17 18 19 20 21 22 23 24 25 26 27 28 29 30 31 32 33 34 35 36 37 38 39 40 41 42 43 44 45 46 47 48 49 50

000
ASUS43 KDTX 300501
RWRMI
MICHIGAN HOURLY REGIONAL WEATHER ROUNDUP
NATIONAL WEATHER SERVICE DETROIT/PONTIAC MI
100 AM EDT WED JUL 30 2014

NOTE: "FAIR" INDICATES FEW OR NO CLOUDS BELOW 12,000 FEET WITH NO
SIGNIFICANT WEATHER AND/OR OBSTRUCTION TO VISIBILITY.

MIZ047>049-052>055-059>063-066>070-074>076-081>083-300600-
SOUTHEAST LOWER MICHIGAN

CITY           SKY/WX    TMP DP  RH WIND       PRES   REMARKS
ADRIAN         CLEAR     58  57  97 CALM      29.99F
ALMA           PTCLDY    54  53  96 W3        29.98S
ANN ARBOR      CLEAR     56  54  93 W5        29.98S FOG
BAD AXE        PTCLDY    56  56 100 CALM      29.95S
CARO           PTCLDY    60  58  93 CALM      29.95S
DETROIT CITY   MOCLDY    65  57  75 W5        29.95F
DETROIT        CLOUDY    60  56  86 W3        29.97F
FLINT          FOG       58  56  93 CALM      29.97S VSB 3/4
GROSSE ILE     PTCLDY    61  57  88 SW3       29.96S
HILLSDALE      PTCLDY    55  55 100 CALM      30.00S
HOWELL         CLEAR     56  55  98 CALM      29.98S FOG

CITY           SKY/WX    TMP DP  RH WIND       PRES   REMARKS
JACKSON        PTCLDY    57  54  89 SW3       29.99S
LAMBERTVILLE   MOCLDY    61  55  82 CALM      29.99R
LANSING        PTCLDY    59  54  83 W7        29.99S
LAPEER         LGT RAIN  58  55  91 CALM      29.97S
MASON          PTCLDY    59  54  83 W3        29.98S
MONROE         CLEAR     61  57  88 CALM      29.96F
MT. CLEMENS    MOCLDY    60  57  89 NW3       29.94F
PONTIAC        PTCLDY    60  57  89 W6        29.96S
PORT HOPE        N/A     57  56  96 SW6       29.93R
PORT HURON     PTCLDY    57  55  94 CALM      29.95S
TRI CITIES     CLOUDY    60  57  89 W3        29.98R
TROY           PTCLDY    61  59  94 W5        29.96F
SAGINAW HB     PTCLDY    59  59 100 W3        29.96S
$$
MIZ043>046-050>051-056>058-064>065-071>073-077>080-300600-
SOUTHWEST LOWER MICHIGAN

CITY           SKY/WX    TMP DP  RH WIND       PRES   REMARKS
BATTLE CREEK   PTCLDY    59  54  83 CALM      30.01R
BENTON HARBOR  CLOUDY    63  57  81 W12       30.00S
BIG RAPIDS     PTCLDY    56  56 100 CALM      29.98S
COLDWATER      PTCLDY    56  55  95 CALM      30.00R
FREMONT        FAIR      54  54  99 CALM      29.99R
HOLLAND        CLOUDY    61  57  87 W6        30.00S
GRAND RAPIDS   MOCLDY    63  58  83 W9        30.00R
IONIA          FAIR      59  54  84 W6        29.99R
KALAMAZOO      CLOUDY    63  55  75 W6        30.00S
LUDINGTON      MOCLDY    55  53  95 CALM      29.99R
MARSHALL       PTCLDY    55  53  96 CALM      29.99S
MOUNT PLEASANT PTCLDY    58  55  89 CALM      29.97S
MUSKEGON       CLOUDY    57  54  89 CALM      29.99S
SOUTH HAVEN    CLOUDY    62  62  99 CALM      30.00S
$$
MIZ016>042-300600-
NORTHERN LOWER MICHIGAN

CITY           SKY/WX    TMP DP  RH WIND       PRES   REMARKS
ALPENA         CLEAR     54  52  93 CALM      29.94S
BEAVER ISLAND  FOG       52  52 100 CALM      29.98S VSB 3/4
BELLAIRE       CLEAR     56  54  91 CALM      29.97S
CADILLAC       CLOUDY    57  55  95 CALM      29.98S
CHARLEVOIX     CLEAR     60  56  85 N6        30.00S FOG
FRANKFORT      CLOUDY    57  54  89 CALM      29.98S
GAYLORD        MOCLDY    55  54  96 NW6       29.98R
GRAYLING       PTCLDY    56  56 100 CALM      29.99R
HARBOR SPRINGS CLEAR     56  51  85 N7        29.96S
HOUGHTON LAKE  CLOUDY    57  54  89 NW3       29.99R
MANISTEE       MOCLDY    54  52  94 CALM      29.98S
OSCODA         CLEAR     55  53  95 CALM      29.94S
PELLSTON       CLEAR     53  50  89 W6        29.97S
ROGERS CITY    CLEAR     54  53  96 CALM      29.96R
TRAVERSE CITY  PTCLDY    60  55  83 CALM      29.97S
$$
MIZ007>008-015-300600-
EASTERN UPPER MICHIGAN

CITY           SKY/WX    TMP DP  RH WIND       PRES   REMARKS
KINROSS        CLOUDY    52  52 100 NW6       29.95F
MACKINAC ISLAN CLEAR     53  50  90 NW6       29.96R
NEWBERRY       CLOUDY    50  49  99 NW7       29.98R FOG
S. S. MARIE    CLOUDY    49  47  93 W7        29.95S FOG
MUNISING         N/A     53  50  89 CALM      29.99R
$$
MIZ004>006-011>014-085-300600-
CENTRAL UPPER MICHIGAN

CITY           SKY/WX    TMP DP  RH WIND       PRES   REMARKS
MANISTIQUE       N/A     50  49  99 CALM      29.99R FOG
ESCANABA         N/A     52  48  87 CALM      30.00S VSB 1/2
MENOMINEE      PTCLDY    61  55  82 NE6       29.98S
SAWYER-GWINN   CLEAR     52  51  97 CALM      30.00S
$$
MIZ001>003-009>011-084-300600-
WESTERN UPPER MICHIGAN

CITY           SKY/WX    TMP DP  RH WIND       PRES   REMARKS
IRON MOUNTAIN  CLEAR     54  51  90 N5        30.01R
HOUGHTON       CLEAR     50  47  89 N6        30.02S
COPPER HARBOR    N/A     52  46  80 W3        30.02R
$$

ABBREVIATIONS USED IN REMARKS
   TC - TEMPERATURE IN CELSIUS
  WCI - WIND CHILL INDEX
   HX - HEAT INDEX
  VSB - VISIBILITY



USA.gov is the U.S. government's official web portal to all federal, state and local government web resources and services.